Location: Shades State Park
(39.9310°N, 87.0690°W)
Time: 07:06:44
(UTC-04:00)

Daily predictions for brighter satellites

Satellite Brightness Start Highest point End
(mag) Time Altitude Azimuth Time Altitude Azimuth Time Altitude Azimuth
USA 40 PKM 4.2 21:31:02 10° SW 21:34:27 76° SE 21:38:38 10° NE
Meteor 1-29 3.7 21:32:13 10° NNE 21:35:17 32° E 21:38:19 10° SSE
Okean 1 4.5 21:36:30 10° SSW 21:40:19 47° W 21:44:11 10° N
COSMOS 2406 3.2 21:35:37 10° SSW 21:41:20 76° ESE 21:47:04 10° NNE
Cosmos 2082 Rocket 4.0 21:43:21 10° ESE 21:44:34 11° E 21:45:47 10° E
ASTRO E2 4.4 21:43:56 10° WSW 21:46:49 19° SSW 21:49:41 10° SE
Meteor 1-13 Rocket 4.3 21:42:42 10° S 21:48:38 78° E 21:54:32 10° NNE
Cosmos 1975 3.9 21:44:55 10° NNW 21:48:51 48° W 21:52:47 10° SSW
NOSS 2-2 (C) 4.4 21:44:58 10° SW 21:48:54 54° NW 21:53:24 10° NNE
Cosmos 1743 2.7 21:45:50 10° N 21:49:44 79° E 21:53:38 10° S
CZ-4B DEB 2.7 21:49:03 10° SSE 21:51:59 56° ENE 21:54:55 10° N
Cosmos 2112 Rocket 4.0 21:48:30 10° S 21:53:41 70° ESE 21:58:51 10° NNE
Cosmos 1238 Rocket 4.3 21:49:15 10° SSE 21:55:45 53° E 22:02:02 10° NNE
ISS -3.5 21:54:01 10° WSW 21:57:18 73° NW 22:00:36 10° NE
Cosmos 1346 2.9 21:54:38 10° S 21:57:23 81° WNW 22:00:09 10° N
Aureole 3 Rocket 3.6 21:51:18 10° S 21:57:44 76° E 22:02:16 10° NNE
ASTEX 1 3.7 21:55:36 10° SSE 22:00:18 47° E 22:04:59 10° N
OAO 2 Rocket 3.6 21:55:53 10° WSW 22:00:38 48° S 22:05:08 11° ESE
H-2A R/B 3.8 22:00:09 10° E 22:03:08 16° ENE 22:06:11 10° NNE
Helios 1A 3.3 22:00:12 10° S 22:04:24 70° WSW 22:08:37 10° NNW
SJ-11-01 4.3 22:00:04 10° SSE 22:04:44 86° WSW 22:09:29 10° NNW
SAR-Lupe-4 3.6 22:01:48 10° S 22:05:23 80° WSW 22:08:59 10° NNW
SL-27 R/B 2.5 22:02:48 10° SSW 22:06:28 88° ESE 22:10:08 10° NNE
Cosmos 1939 Rocket 2.9 22:05:02 10° S 22:08:53 74° WSW 22:12:46 10° NNW
YAOGAN 6 2.5 22:06:34 12° SSE 22:09:43 65° ENE 22:13:13 10° N
Cosmos 1666 2.7 22:08:35 10° N 22:12:21 82° W 22:16:05 10° S
Meteor 2-9 Rocket 4.2 22:08:08 10° N 22:13:39 74° E 22:19:13 10° SSE
Cosmos 1680 Rocket 4.0 22:11:06 10° SSW 22:16:15 62° WNW 22:21:27 10° NNE
Okean 1-7 Rocket 3.6 22:12:34 10° S 22:16:59 71° E 22:21:29 10° NNE
DNEPR-1 R/B 3.9 22:14:49 10° NW 22:19:03 65° WSW 22:22:55 15° SSE
Intercosmos 24 3.9 22:16:57 10° N 22:20:39 51° E 22:22:54 20° SSE
Cosmos 2056 Rocket 3.9 22:15:53 10° N 22:20:51 45° ENE 22:24:17 19° SE
Cosmos 1833 Rocket 3.9 22:19:03 16° SE 22:21:32 22° E 22:25:46 10° NE
CZ-3B Rocket 4.4 22:19:44 10° S 22:21:32 12° SSE 22:21:32 12° SSE
Cosmos 1437 Rocket 3.2 22:19:23 10° N 22:23:05 43° ENE 22:25:16 21° SE
Envisat 4.0 22:19:44 10° S 22:24:35 46° W 22:29:28 10° NNW
Cosmos 2341 Rocket 4.4 22:18:50 10° N 22:24:56 47° ENE 22:29:28 18° SE
MetOp-A 4.3 22:23:24 17° SSE 22:27:31 59° ENE 22:32:48 10° N
Helios 1B rocket 3.9 22:23:57 10° N 22:27:50 40° WNW 22:31:42 10° SW
Meteor 2-4 Rocket 4.0 22:23:28 10° SSW 22:29:05 72° W 22:34:55 10° N
Cosmos 1606 Rocket 3.8 22:26:36 10° N 22:30:48 49° E 22:33:15 23° SE
PSLV R/B 3.1 22:28:37 10° W 22:31:43 64° SSW 22:32:59 31° SE
Cosmos 405 3.4 22:34:27 10° NNW 22:37:58 60° W 22:40:28 18° S
Cosmos 1726 Rocket 3.7 22:36:18 10° N 22:40:32 53° E 22:42:37 27° SE
Cosmos 1025 Rocket 3.3 22:37:00 10° SSW 22:41:14 68° W 22:45:29 10° N
USA 245 3.0 22:42:20 35° ENE 22:42:21 35° ENE 22:44:33 10° N
Cosmos 1515 3.7 22:40:58 26° SSE 22:42:53 57° E 22:46:39 10° NNE
COSMOS 2487 2.9 22:43:44 34° SE 22:44:39 41° ESE 22:48:02 10° NNE
NOSS 8 (F) 4.3 22:44:33 10° SSW 22:48:05 71° ESE 22:51:37 10° NE
CZ-3A R/B 0.0 22:44:10 10° SW 22:48:16 90° WNW 22:48:50 42° NE
Cosmos 1452 Rocket 4.3 22:47:55 10° N 22:52:47 37° ENE 22:55:04 25° ESE
Cosmos 1980 Rocket 3.9 22:49:19 10° N 22:53:24 20° NE 22:56:23 14° E
SPOT 1/Viking Rocket 3.8 22:51:40 28° SE 22:54:14 54° ENE 22:59:16 10° N
YAOGAN 11 4.0 22:52:11 29° SSE 22:54:21 86° ENE 22:58:42 10° NNW
Cosmos 2181 Rocket 4.0 22:49:26 17° S 22:54:30 69° E 23:00:45 10° NNE
Cosmos 2058 Rocket 3.2 22:50:48 10° N 22:55:10 56° E 22:56:51 34° SE
Okean 2 4.0 22:54:01 11° SSW 22:57:55 55° W 23:01:56 10° N
Tiangong 2 1.9 22:56:06 10° W 22:59:13 50° N 23:00:58 22° ENE
Cosmos 1371 Rocket 4.4 22:55:16 10° NNW 23:00:29 58° WSW 23:03:45 22° S
ARGOS 3.1 22:58:32 26° SSE 23:01:43 90° NE 23:07:10 10° NNW
Cosmos 1295 Rocket 4.4 22:56:40 10° N 23:02:53 76° E 23:06:29 27° SSE
ERS-1 Rocket 3.9 23:01:27 15° SSW 23:05:17 44° W 23:10:06 10° NNW
Nimbus 7 Rocket 4.4 22:59:16 10° NNE 23:05:22 72° ESE 23:09:45 20° S
OE (NEXTSAT) 4.3 23:04:41 10° WNW 23:08:16 83° SSW 23:08:47 63° SE
Terra 2.8 23:07:56 29° ESE 23:09:16 34° ENE 23:13:32 10° N
NOSS 8 (H) 4.2 23:08:24 41° SSW 23:09:27 79° ESE 23:12:58 10° NE
SPOT 5 2.7 23:09:29 34° S 23:11:19 71° WSW 23:15:40 10° NNW
Iridium 82 4.5 23:08:08 10° N 23:11:44 76° E 23:12:22 57° SSE
H-2A R/B 3.0 23:15:12 33° E 23:16:10 37° ENE 23:20:20 10° N
IGS 5A 4.2 23:18:14 34° E 23:18:45 36° ENE 23:22:35 10° N
Cosmos 1626 Rocket 3.5 23:26:20 55° ESE 23:26:45 59° E 23:31:00 10° NNE
Cosmos 2082 Rocket 2.1 23:23:35 19° SSW 23:27:45 89° ESE 23:33:26 10° NNE
Cosmos 2278 3.8 23:23:23 10° NNW 23:29:05 69° WSW 23:31:16 38° S
SL-19 R/B 4.3 23:27:09 10° NNE 23:32:21 52° E 23:33:15 46° SE
Meteor 1-22 Rocket 4.2 23:28:02 10° N 23:33:19 62° ENE 23:34:40 47° SE
ISS -0.6 23:32:05 10° WNW 23:34:16 16° NNW 23:36:27 10° NNE
USA 229 DEB 4.5 23:28:37 10° NNW 23:35:27 46° NE 23:39:05 27° ESE
USA 229 4.5 23:28:43 10° NNW 23:35:33 46° NE 23:39:12 27° ESE
SL-8 Rocket 4.0 23:29:21 10° N 23:35:38 80° W 23:38:28 35° S
Cosmos 2366 rocket 3.9 23:35:15 10° N 23:41:26 84° E 23:43:33 44° SSE
H-2A R/B 2.3 23:40:27 40° SSW 23:42:02 59° W 23:47:01 10° NNW
OAO 2 Rocket 4.3 23:40:32 10° W 23:44:05 31° SW 23:44:05 31° SW
Cosmos 2228 3.8 23:41:13 10° NNW 23:45:18 44° W 23:46:19 37° SW
Cosmos 158 Rocket 4.0 23:46:06 55° SE 23:46:40 59° ESE 23:51:57 10° NNE
Cosmos 921 Rocket 4.3 23:44:17 10° NW 23:48:15 32° W 23:49:22 28° SW
Cosmos 2369 4.4 23:43:21 10° NW 23:48:48 47° WSW 23:50:41 35° SSW
Meteor 1-4 Rocket 3.0 23:45:32 10° NNW 23:48:46 57° WNW 23:48:46 57° WNW
Cosmos 1697 Rocket 2.6 23:44:01 10° NNW 23:49:39 88° ENE 23:50:57 55° SSE
